Voltar ao catálogo

STARLINK-11394

AtivoComunicaçõesVLEO
NORAD 62218·PAYLOAD·🇺🇸 United States

Lançado Dec 5, 2024 de Vandenberg Space Force Base

Loading…

Próximas Passagens (próximas 24 horas)

TLE

AtualizadoSource: CelesTrak SupGP

Época: Sep 15, 2026, 02:09 UTC

1 62218C 24231A   26258.09006944  .00007956  00000+0  65470-4 0  2586
2 62218  53.1575 247.6004 0001222  88.9324  98.5786 15.69728589    15

Acompanhe STARLINK-11394 em tempo real com AllMySat

Download on the App Store